EW3649 Weather Reports


time (UTC)temp
C
wind
direction
speed
KPH
gust
KPH
rain 1hr
cm
rain 24hr
cm
rain mn
cm
humidity
%
barometer
mb
20260906073004 11 0 0.0 0.0 0.00 0.00 0.00 89 1015.9
20260906072503 11 0 0.0 0.0 0.00 0.00 0.00 89 1016.0
20260906072004 11 0 0.0 0.0 0.00 0.00 0.00 88 1016.1
20260906071503 11 0 0.0 0.0 0.00 0.00 0.00 88 1016.2
20260906071004 11 0 0.0 0.0 0.00 0.00 0.00 88 1016.3
20260906070504 11 0 0.0 0.0 0.00 0.00 0.00 88 1016.2
20260906070007 11 0 0.0 0.0 0.00 0.00 0.00 88 1016.2
20260906065504 11 0 0.0 0.0 0.00 0.00 0.00 88 1016.2
20260906064504 11 0 0.0 0.0 0.00 0.00 0.00 87 1016.3
20260906064004 12 0 0.0 0.0 0.00 0.00 0.00 87 1016.3
20260906063505 12 0 0.0 0.0 0.00 0.00 0.00 86 1016.3
20260906063006 12 0 0.0 0.0 0.00 0.00 0.00 86 1016.3
20260906062505 12 0 0.0 0.0 0.00 0.00 0.00 86 1016.2
20260906062006 12 0 0.0 0.0 0.00 0.00 0.00 86 1016.2
20260906061006 12 0 0.0 0.0 0.00 0.00 0.00 86 1016.2
20260906060505 12 0 0.0 0.0 0.00 0.00 0.00 86 1016.3
20260906054006 12 0 0.0 0.0 0.00 0.00 0.00 85 1016.4
20260906053505 12 0 0.0 0.0 0.00 0.00 0.00 85 1016.4
20260906053006 12 0 0.0 0.0 0.00 0.00 0.00 84 1016.5
20260906052506 12 0 0.0 0.0 0.00 0.00 0.00 84 1016.5
20260906050505 13 0 0.0 0.0 0.00 0.00 0.00 83 1016.6
20260906050005 13 0 0.0 0.0 0.00 0.00 0.00 83 1016.6
20260906045506 13 0 0.0 0.0 0.00 0.00 0.00 82 1016.6
20260906045005 13 0 0.0 0.0 0.00 0.00 0.00 82 1016.6
20260906043505 13 0 0.0 0.0 0.00 0.00 0.00 81 1016.6
20260906043006 14 0 0.0 0.0 0.00 0.00 0.00 80 1016.6
20260906042506 14 0 0.0 0.0 0.00 0.00 0.00 80 1016.6
20260906042005 14 0 0.0 0.0 0.00 0.00 0.00 80 1016.6
20260906041006 15 0 0.0 0.0 0.00 0.00 0.00 78 1016.7
20260906040505 15 0 0.0 0.0 0.00 0.00 0.00 78 1016.7
20260906040006 15 0 0.0 0.0 0.00 0.00 0.00 78 1016.7
20260906035505 15 0 0.0 0.0 0.00 0.00 0.00 77 1016.7
20260906034504 15 0 0.0 0.0 0.00 0.00 0.00 77 1016.6
20260906034005 15 0 0.0 0.0 0.00 0.00 0.00 76 1016.6
20260906033006 15 0 0.0 0.0 0.00 0.00 0.00 74 1016.5
20260906032505 16 0 0.0 0.0 0.00 0.00 0.00 74 1016.5
20260906031505 16 0 0.0 0.0 0.00 0.00 0.00 73 1016.4
20260906030505 16 0 0.0 0.0 0.00 0.00 0.00 71 1016.4
20260906030005 17 0 0.0 0.0 0.00 0.00 0.00 71 1016.4
20260906025005 17 0 0.0 0.0 0.00 0.00 0.00 68 1016.3
20260906024504 17 0 0.0 0.0 0.00 0.00 0.00 67 1016.3
20260906023505 17 0 0.0 0.0 0.00 0.00 0.00 66 1016.2
20260906022505 18 0 0.0 0.0 0.00 0.00 0.00 64 1016.1
20260906022006 18 0 0.0 0.0 0.00 0.00 0.00 64 1016.1
20260906021505 18 0 0.0 0.0 0.00 0.00 0.00 63 1016.2
20260906020505 19 0 0.0 0.0 0.00 0.00 0.00 62 1016.2
20260906020005 19 0 0.0 0.0 0.00 0.00 0.00 60 1016.2
20260906015504 19 0 0.0 0.0 0.00 0.00 0.00 60 1016.2
20260906015005 19 0 0.0 0.0 0.00 0.00 0.00 58 1016.2
20260906014505 19 0 0.0 0.0 0.00 0.00 0.00 59 1016.1
20260906013505 19 0 0.0 0.0 0.00 0.00 0.00 59 1016.0
20260906012006 19 0 0.0 0.0 0.00 0.00 0.00 59 1016.1
20260906011504 20 0 0.0 0.0 0.00 0.00 0.00 59 1016.0
20260906011005 20 0 0.0 0.0 0.00 0.00 0.00 58 1016.0
20260906010505 20 0 0.0 0.0 0.00 0.00 0.00 59 1016.0
20260906005505 20 0 0.0 0.0 0.00 0.00 0.00 60 1016.0
20260906005005 20 0 0.0 0.0 0.00 0.00 0.00 61 1015.9
20260906004504 20 0 0.0 0.0 0.00 0.00 0.00 59 1015.9
20260906004005 20 0 0.0 0.0 0.00 0.00 0.00 59 1015.9
20260906003504 20 0 0.0 0.0 0.00 0.00 0.00 59 1015.9
20260906003005 20 0 0.0 0.0 0.00 0.00 0.00 58 1015.9
20260906002505 20 0 0.0 0.0 0.00 0.00 0.00 58 1015.9
20260906002005 20 0 0.0 0.0 0.00 0.00 0.00 58 1015.9
20260906001505 20 0 0.0 0.0 0.00 0.00 0.00 58 1015.9
20260906001006 20 0 0.0 0.0 0.00 0.00 0.00 58 1015.9
20260905235504 20 0 0.0 0.0 0.00 0.00 0.00 58 1016.0
20260905235005 20 0 0.0 0.0 0.00 0.00 0.00 56 1016.1
20260905234505 20 0 0.0 0.0 0.00 0.00 0.00 56 1016.1
20260905234006 20 0 0.0 0.0 0.00 0.00 0.00 57 1016.1
20260905233505 20 0 0.0 0.0 0.00 0.00 0.00 61 1016.1
20260905233005 19 0 0.0 0.0 0.00 0.00 0.00 63 1016.1
20260905232504 19 0 0.0 0.0 0.00 0.00 0.00 64 1016.1
20260905231504 20 0 0.0 0.0 0.00 0.00 0.00 62 1016.1
20260905231006 19 0 0.0 0.0 0.00 0.00 0.00 61 1016.2
20260905230005 20 0 0.0 0.0 0.00 0.00 0.00 60 1016.4
20260905225504 20 0 0.0 0.0 0.00 0.00 0.00 60 1016.4
20260905225006 20 0 0.0 0.0 0.00 0.00 0.00 62 1016.3
20260905224504 20 0 0.0 0.0 0.00 0.00 0.00 60 1016.4
20260905224005 19 0 0.0 0.0 0.00 0.00 0.00 62 1016.5
20260905223504 19 0 0.0 0.0 0.00 0.00 0.00 60 1016.5
20260905223005 19 0 0.0 0.0 0.00 0.00 0.00 60 1016.6
20260905222505 19 0 0.0 0.0 0.00 0.00 0.00 64 1016.7
20260905222005 18 0 0.0 0.0 0.00 0.00 0.00 63 1016.8
20260905221505 18 0 0.0 0.0 0.00 0.00 0.00 65 1016.8
20260905221004 18 0 0.0 0.0 0.00 0.00 0.00 67 1016.9
20260905220504 18 0 0.0 0.0 0.00 0.00 0.00 66 1017.0
20260905220005 17 0 0.0 0.0 0.00 0.00 0.00 67 1017.0
20260905215505 17 0 0.0 0.0 0.00 0.00 0.00 67 1017.1
20260905215005 17 0 0.0 0.0 0.00 0.00 0.00 70 1017.1
20260905214505 17 247 0.0 1.6 0.00 0.00 0.00 68 1017.2
20260905214005 17 248 0.0 1.6 0.00 0.00 0.00 69 1017.2
20260905213505 17 248 0.0 3.2 0.00 0.00 0.00 71 1017.3
20260905213005 16 248 0.0 3.2 0.00 0.00 0.00 71 1017.2
20260905212505 16 0 0.0 0.0 0.00 0.00 0.00 72 1017.3
20260905211505 16 0 0.0 0.0 0.00 0.00 0.00 73 1017.3
20260905210504 16 0 0.0 0.0 0.00 0.00 0.00 74 1017.4
20260905205504 16 0 0.0 0.0 0.00 0.00 0.00 75 1017.5
20260905205005 16 0 0.0 0.0 0.00 0.00 0.00 74 1017.4
20260905204504 15 0 0.0 0.0 0.00 0.00 0.00 73 1017.5
20260905204005 15 0 0.0 0.0 0.00 0.00 0.00 75 1017.5
20260905203004 15 0 0.0 0.0 0.00 0.00 0.00 77 1017.6
20260905202505 15 0 0.0 0.0 0.00 0.00 0.00 77 1017.6
20260905202005 15 0 0.0 0.0 0.00 0.00 0.00 77 1017.6
20260905201504 15 0 0.0 0.0 0.00 0.00 0.00 76 1017.6
20260905201005 15 0 0.0 0.0 0.00 0.00 0.00 77 1017.6
20260905200005 15 0 0.0 0.0 0.00 0.00 0.00 78 1017.7
20260905195504 15 0 0.0 0.0 0.00 0.00 0.00 79 1017.7
20260905195005 15 0 0.0 0.0 0.00 0.00 0.00 78 1017.7
20260905194004 15 0 0.0 0.0 0.00 0.00 0.00 79 1017.7
20260905193504 15 0 0.0 0.0 0.00 0.00 0.00 78 1017.8
20260905193006 15 0 0.0 0.0 0.00 0.00 0.00 78 1017.8
20260905192505 15 0 0.0 0.0 0.00 0.00 0.00 78 1017.8
20260905192004 15 0 0.0 0.0 0.00 0.00 0.00 78 1017.8
20260905191005 15 0 0.0 0.0 0.00 0.00 0.00 77 1017.8
20260905190504 15 0 0.0 0.0 0.00 0.00 0.00 77 1017.8
20260905190005 15 248 0.0 3.2 0.00 0.00 0.00 77 1017.9
20260905185504 15 248 0.0 3.2 0.00 0.00 0.00 76 1018.0
20260905185005 15 0 0.0 0.0 0.00 0.00 0.00 76 1018.0
20260905184504 15 0 0.0 0.0 0.00 0.00 0.00 76 1018.1
20260905184005 15 0 0.0 0.0 0.00 0.00 0.00 78 1018.2
20260905183504 15 0 0.0 0.0 0.00 0.00 0.00 77 1018.1
20260905183005 15 0 0.0 0.0 0.00 0.00 0.00 78 1018.2
20260905182504 15 0 0.0 0.0 0.00 0.00 0.00 79 1018.2
20260905182005 15 0 0.0 0.0 0.00 0.00 0.00 78 1018.2
20260905181504 14 0 0.0 0.0 0.00 0.00 0.00 79 1018.2
20260905181005 14 0 0.0 0.0 0.00 0.00 0.00 79 1018.2
20260905180504 14 0 0.0 0.0 0.00 0.00 0.00 80 1018.2
20260905180005 14 0 0.0 0.0 0.00 0.00 0.00 79 1018.2
20260905175504 14 0 0.0 0.0 0.00 0.00 0.00 78 1018.2
20260905175005 14 0 0.0 0.0 0.00 0.00 0.00 79 1018.2
20260905174504 14 0 0.0 0.0 0.00 0.00 0.00 79 1018.2
20260905174005 14 0 0.0 0.0 0.00 0.00 0.00 80 1018.2
20260905173504 14 0 0.0 0.0 0.00 0.00 0.00 80 1018.1
20260905173005 14 0 0.0 0.0 0.00 0.00 0.00 80 1018.0
20260905172505 14 0 0.0 0.0 0.00 0.00 0.00 80 1018.0
20260905172005 14 0 0.0 0.0 0.00 0.00 0.00 79 1018.0
20260905171504 14 0 0.0 0.0 0.00 0.00 0.00 80 1017.9
20260905171005 13 0 0.0 0.0 0.00 0.00 0.00 80 1017.9
20260905170504 13 0 0.0 0.0 0.00 0.00 0.00 80 1017.9
20260905170005 13 0 0.0 0.0 0.00 0.00 0.00 81 1018.0
20260905165504 13 0 0.0 0.0 0.00 0.00 0.00 80 1017.9
20260905165005 13 0 0.0 0.0 0.00 0.00 0.00 79 1017.9
20260905164504 14 0 0.0 0.0 0.00 0.00 0.00 80 1017.9
20260905163504 14 0 0.0 0.0 0.00 0.00 0.00 79 1017.8
20260905163005 14 0 0.0 0.0 0.00 0.00 0.00 79 1017.8
20260905162005 15 248 0.0 1.6 0.00 0.00 0.00 79 1017.8
20260905161504 15 0 0.0 0.0 0.00 0.00 0.00 78 1017.8
20260905161005 15 0 0.0 0.0 0.00 0.00 0.00 79 1017.8
20260905160004 15 0 0.0 0.0 0.00 0.00 0.00 82 1017.7
20260905155504 14 0 0.0 0.0 0.00 0.00 0.00 84 1017.8
20260905155005 14 0 0.0 0.0 0.00 0.00 0.00 86 1017.8
20260905154504 13 0 0.0 0.0 0.00 0.00 0.00 89 1017.7
20260905154005 12 0 0.0 0.0 0.00 0.00 0.00 91 1017.7
20260905153504 12 0 0.0 0.0 0.00 0.00 0.00 92 1017.7
20260905153005 12 0 0.0 0.0 0.00 0.00 0.00 93 1017.8
20260905152504 12 0 0.0 0.0 0.00 0.00 0.00 94 1017.8
20260905152005 11 0 0.0 0.0 0.00 0.00 0.00 94 1017.8
20260905151504 11 0 0.0 0.0 0.00 0.00 0.00 94 1017.7
20260905151005 11 0 0.0 0.0 0.00 0.00 0.00 94 1017.6
20260905150504 11 0 0.0 0.0 0.00 0.00 0.00 94 1017.5
20260905150006 11 0 0.0 0.0 0.00 0.00 0.00 94 1017.5
20260905145504 11 0 0.0 0.0 0.00 0.00 0.00 94 1017.5
20260905145005 10 0 0.0 0.0 0.00 0.00 0.00 94 1017.4
20260905144504 10 0 0.0 0.0 0.00 0.00 0.00 94 1017.4
20260905144005 10 0 0.0 0.0 0.00 0.00 0.00 94 1017.4
20260905143504 10 0 0.0 0.0 0.00 0.00 0.00 94 1017.3
20260905143006 10 0 0.0 0.0 0.00 0.00 0.00 93 1017.3
20260905142504 10 0 0.0 0.0 0.00 0.00 0.00 93 1017.2
20260905141005 10 0 0.0 0.0 0.00 0.00 0.00 93 1017.2
20260905140504 10 0 0.0 0.0 0.00 0.00 0.00 93 1017.2
20260905140006 10 0 0.0 0.0 0.00 0.00 0.00 93 1017.1
20260905135505 10 0 0.0 0.0 0.00 0.00 0.00 93 1017.1
20260905135004 10 0 0.0 0.0 0.00 0.00 0.00 93 1017.1
20260905134504 10 0 0.0 0.0 0.00 0.00 0.00 93 1017.0
20260905134005 10 0 0.0 0.0 0.00 0.00 0.00 93 1017.0
20260905133504 10 0 0.0 0.0 0.00 0.00 0.00 93 1017.0
20260905132504 10 0 0.0 0.0 0.00 0.00 0.00 93 1016.9
20260905132005 10 0 0.0 0.0 0.00 0.00 0.00 93 1016.9
20260905131504 10 0 0.0 0.0 0.00 0.00 0.00 93 1016.9
20260905131005 10 0 0.0 0.0 0.00 0.00 0.00 93 1016.9
20260905130504 10 0 0.0 0.0 0.00 0.00 0.00 93 1017.0
20260905130005 10 0 0.0 0.0 0.00 0.00 0.00 93 1016.9
20260905125504 10 0 0.0 0.0 0.00 0.00 0.00 93 1016.9
20260905125005 10 0 0.0 0.0 0.00 0.00 0.00 93 1016.8
20260905124504 10 0 0.0 0.0 0.00 0.00 0.00 93 1016.8
20260905124005 10 0 0.0 0.0 0.00 0.00 0.00 93 1016.8
20260905123505 10 0 0.0 0.0 0.00 0.00 0.00 93 1016.8
20260905122504 10 0 0.0 0.0 0.00 0.00 0.00 93 1016.8
20260905122006 10 0 0.0 0.0 0.00 0.00 0.00 93 1016.8
20260905121504 10 0 0.0 0.0 0.00 0.00 0.00 93 1016.8
20260905121005 10 0 0.0 0.0 0.00 0.00 0.00 93 1016.8
20260905120504 10 0 0.0 0.0 0.00 0.00 0.00 93 1016.9
20260905120006 10 0 0.0 0.0 0.00 0.00 0.00 93 1016.9
20260905115504 10 0 0.0 0.0 0.00 0.00 0.00 93 1016.9
20260905115005 10 0 0.0 0.0 0.00 0.00 0.00 93 1016.8
20260905114504 10 0 0.0 0.0 0.00 0.00 0.00 93 1016.8
20260905114005 10 0 0.0 0.0 0.00 0.00 0.00 93 1016.8
20260905113504 10 0 0.0 0.0 0.00 0.00 0.00 93 1016.7
20260905113004 10 0 0.0 0.0 0.00 0.00 0.00 93 1016.7
20260905112504 9 0 0.0 0.0 0.00 0.00 0.00 93 1016.6
20260905112005 9 0 0.0 0.0 0.00 0.00 0.00 93 1016.5
20260905110004 9 0 0.0 0.0 0.00 0.00 0.00 92 1016.5
20260905105504 9 0 0.0 0.0 0.00 0.00 0.00 92 1016.5
20260905104504 9 0 0.0 0.0 0.00 0.00 0.00 92 1016.5
20260905104004 9 0 0.0 0.0 0.00 0.00 0.00 92 1016.4
20260905103504 9 0 0.0 0.0 0.00 0.00 0.00 92 1016.4
20260905103004 9 0 0.0 0.0 0.00 0.00 0.00 92 1016.4
20260905102504 9 0 0.0 0.0 0.00 0.00 0.00 92 1016.3
20260905102005 10 0 0.0 0.0 0.00 0.00 0.00 92 1016.3
20260905101504 10 0 0.0 0.0 0.00 0.00 0.00 92 1016.3
20260905101004 10 0 0.0 0.0 0.00 0.00 0.00 92 1016.3
20260905100503 10 0 0.0 0.0 0.00 0.00 0.00 92 1016.4
20260905100005 10 0 0.0 0.0 0.00 0.00 0.00 92 1016.4
20260905095504 10 0 0.0 0.0 0.00 0.00 0.00 92 1016.4
20260905095004 10 0 0.0 0.0 0.00 0.00 0.00 92 1016.3
20260905094504 10 0 0.0 0.0 0.00 0.00 0.00 92 1016.4
20260905094004 10 0 0.0 0.0 0.00 0.00 0.00 92 1016.4
20260905093504 10 0 0.0 0.0 0.00 0.00 0.00 92 1016.4
20260905093004 10 0 0.0 0.0 0.00 0.00 0.00 92 1016.4
20260905092504 10 0 0.0 0.0 0.00 0.00 0.00 92 1016.4
20260905091504 10 0 0.0 0.0 0.00 0.00 0.00 92 1016.3
20260905091004 10 0 0.0 0.0 0.00 0.00 0.00 92 1016.3
20260905090504 10 0 0.0 0.0 0.00 0.00 0.00 91 1016.3
20260905090004 10 0 0.0 0.0 0.00 0.00 0.00 91 1016.3
20260905085503 10 0 0.0 0.0 0.00 0.00 0.00 91 1016.2
20260905085003 10 0 0.0 0.0 0.00 0.00 0.00 91 1016.3
20260905084504 10 0 0.0 0.0 0.00 0.00 0.00 91 1016.2
20260905084004 10 0 0.0 0.0 0.00 0.00 0.00 91 1016.2
20260905083504 10 0 0.0 0.0 0.00 0.00 0.00 91 1016.2
20260905083003 10 0 0.0 0.0 0.00 0.00 0.00 91 1016.2
20260905082005 10 0 0.0 0.0 0.00 0.00 0.00 91 1016.1
20260905081504 10 0 0.0 0.0 0.00 0.00 0.00 90 1016.1
20260905081004 10 0 0.0 0.0 0.00 0.00 0.00 90 1016.1
20260905080504 10 0 0.0 0.0 0.00 0.00 0.00 90 1016.1
20260905080005 10 0 0.0 0.0 0.00 0.00 0.00 90 1016.1
20260905075504 10 0 0.0 0.0 0.00 0.00 0.00 90 1016.1
20260905075005 10 0 0.0 0.0 0.00 0.00 0.00 90 1016.1
20260905074504 10 0 0.0 0.0 0.00 0.00 0.00 90 1016.2
20260905073503 11 0 0.0 0.0 0.00 0.03 0.00 89 1016.2